• En España
  • Lista de países
  • Para 7 días
  • Temperatura del agua
  • Mapa Satelital
  • El tiempo en el mapa
  • Informadores
  • user-avatar
    Iniciar sesión

    Tiempo cada hora Namibe

    Hoy, 22 Octubre, Lunes

    Tiempo Temperatura Precipitaciones Viento Presión Humedad
    00:00 +29°C° 0.1 mm 4 mps 756 mmHg 49%
    01:00 +30°C° 0.1 mm 3 mps 756 mmHg 50%
    02:00 +30°C° 0.1 mm 3 mps 756 mmHg 52%
    03:00 +29°C° 0.1 mm 3 mps 756 mmHg 53%
    04:00 +29°C° 0.1 mm 3 mps 755 mmHg 55%
    05:00 +29°C° 0 mm 3 mps 756 mmHg 56%
    06:00 +29°C° 0 mm 3 mps 756 mmHg 57%
    07:00 +29°C° 0 mm 2 mps 756 mmHg 57%
    08:00 +30°C° 0.1 mm 2 mps 756 mmHg 54%
    09:00 +31°C° 0.1 mm 2 mps 756 mmHg 51%
    10:00 +32°C° 0.1 mm 2 mps 757 mmHg 48%
    11:00 +32°C° 0 mm 2 mps 756 mmHg 48%
    12:00 +33°C° 0 mm 3 mps 756 mmHg 48%
    13:00 +34°C° 0 mm 3 mps 755 mmHg 48%
    14:00 +33°C° 0 mm 4 mps 755 mmHg 50%
    15:00 +32°C° 0 mm 4 mps 754 mmHg 53%
    16:00 +30°C° 0 mm 4 mps 754 mmHg 55%
    17:00 +29°C° 0 mm 3 mps 755 mmHg 59%
    18:00 +28°C° 0 mm 3 mps 755 mmHg 63%
    19:00 +27°C° 0 mm 2 mps 756 mmHg 67%
    20:00 +27°C° 0.1 mm 2 mps 757 mmHg 66%
    21:00 +28°C° 0.1 mm 1 mps 757 mmHg 64%
    22:00 +28°C° 0.1 mm 1 mps 758 mmHg 63%
    23:00 +28°C° 0.3 mm 1 mps 758 mmHg 63%

    Mañana, 23 Octubre, Martes

    Tiempo Temperatura Precipitaciones Viento Presión Humedad
    00:00 +29°C° 0.3 mm 1 mps 758 mmHg 63%
    01:00 +29°C° 0.3 mm 1 mps 757 mmHg 63%
    02:00 +28°C° 0 mm 1 mps 757 mmHg 65%
    03:00 +28°C° 0 mm 1 mps 757 mmHg 67%
    04:00 +27°C° 0 mm 1 mps 757 mmHg 69%
    05:00 +27°C° 0 mm 1 mps 757 mmHg 69%
    06:00 +27°C° 0 mm 1 mps 758 mmHg 69%
    07:00 +28°C° 0 mm 1 mps 758 mmHg 69%
    08:00 +29°C° 0 mm 2 mps 758 mmHg 63%
    09:00 +31°C° 0 mm 2 mps 758 mmHg 56%
    10:00 +34°C° 0 mm 2 mps 758 mmHg 50%
    11:00 +35°C° 0 mm 3 mps 758 mmHg 46%
    12:00 +37°C° 0 mm 4 mps 757 mmHg 42%
    13:00 +38°C° 0 mm 4 mps 757 mmHg 38%
    14:00 +37°C° 0 mm 5 mps 756 mmHg 40%
    15:00 +36°C° 0 mm 5 mps 756 mmHg 43%
    16:00 +35°C° 0 mm 5 mps 756 mmHg 46%
    17:00 +34°C° 0 mm 4 mps 756 mmHg 50%
    18:00 +32°C° 0 mm 4 mps 757 mmHg 55%
    19:00 +30°C° 0 mm 3 mps 758 mmHg 60%
    20:00 +29°C° 0 mm 2 mps 759 mmHg 61%
    21:00 +29°C° 0 mm 2 mps 759 mmHg 62%
    22:00 +29°C° 0 mm 2 mps 760 mmHg 63%
    23:00 +29°C° 0 mm 2 mps 760 mmHg 64%

    Pasado mañana, 24 Octubre, Miércoles

    Tiempo Temperatura Precipitaciones Viento Presión Humedad
    00:00 +29°C° 0 mm 1 mps 759 mmHg 64%
    01:00 +29°C° 0 mm 1 mps 759 mmHg 64%
    02:00 +29°C° 0 mm 1 mps 759 mmHg 64%
    03:00 +29°C° 0 mm 1 mps 758 mmHg 64%
    04:00 +29°C° 0 mm 1 mps 758 mmHg 64%
    05:00 +29°C° 0.1 mm 1 mps 758 mmHg 63%
    06:00 +30°C° 0.1 mm 1 mps 759 mmHg 62%
    07:00 +30°C° 0.1 mm 1 mps 759 mmHg 61%
    08:00 +31°C° 0 mm 1 mps 759 mmHg 56%
    09:00 +33°C° 0 mm 1 mps 759 mmHg 52%
    10:00 +35°C° 0 mm 2 mps 759 mmHg 47%
    11:00 +36°C° 0 mm 3 mps 758 mmHg 44%
    12:00 +37°C° 0 mm 4 mps 757 mmHg 42%
    13:00 +39°C° 0 mm 5 mps 757 mmHg 39%
    14:00 +37°C° 0.3 mm 5 mps 756 mmHg 42%
    15:00 +36°C° 0.3 mm 5 mps 756 mmHg 45%
    16:00 +35°C° 0.3 mm 6 mps 755 mmHg 48%
    17:00 +34°C° 0.4 mm 5 mps 756 mmHg 52%
    18:00 +32°C° 0.4 mm 4 mps 756 mmHg 57%
    19:00 +30°C° 0.4 mm 4 mps 757 mmHg 61%
    20:00 +30°C° 0.3 mm 3 mps 758 mmHg 62%
    21:00 +29°C° 0.3 mm 3 mps 758 mmHg 63%
    22:00 +29°C° 0.3 mm 2 mps 759 mmHg 64%
    23:00 +29°C° 0.4 mm 2 mps 758 mmHg 64%

    25 Octubre, Jueves

    Tiempo Temperatura Precipitaciones Viento Presión Humedad
    00:00 +29°C° 0.4 mm 3 mps 758 mmHg 65%
    01:00 +29°C° 0.4 mm 3 mps 757 mmHg 66%
    02:00 +29°C° 0 mm 3 mps 757 mmHg 66%
    03:00 +29°C° 0 mm 3 mps 757 mmHg 67%
    04:00 +29°C° 0 mm 3 mps 757 mmHg 67%
    05:00 +29°C° 0 mm 2 mps 757 mmHg 67%
    06:00 +29°C° 0 mm 2 mps 757 mmHg 67%
    07:00 +29°C° 0 mm 2 mps 758 mmHg 67%
    08:00 +31°C° 0 mm 2 mps 758 mmHg 61%
    09:00 +32°C° 0 mm 2 mps 758 mmHg 56%
    10:00 +34°C° 0 mm 3 mps 757 mmHg 51%
    11:00 +35°C° 0.1 mm 3 mps 757 mmHg 48%
    12:00 +36°C° 0.1 mm 4 mps 756 mmHg 45%
    13:00 +37°C° 0.1 mm 5 mps 756 mmHg 42%
    14:00 +36°C° 0.4 mm 5 mps 755 mmHg 44%
    15:00 +36°C° 0.4 mm 5 mps 755 mmHg 45%
    16:00 +35°C° 0.4 mm 5 mps 755 mmHg 46%
    17:00 +34°C° 0 mm 5 mps 756 mmHg 48%
    18:00 +33°C° 0 mm 4 mps 756 mmHg 51%
    19:00 +32°C° 0 mm 4 mps 757 mmHg 53%
    20:00 +31°C° 0 mm 3 mps 758 mmHg 53%
    21:00 +31°C° 0 mm 3 mps 758 mmHg 53%
    22:00 +31°C° 0 mm 2 mps 759 mmHg 53%
    23:00 +31°C° 0 mm 2 mps 758 mmHg 54%

    26 Octubre, Viernes

    Tiempo Temperatura Precipitaciones Viento Presión Humedad
    00:00 +31°C° 0 mm 2 mps 758 mmHg 55%
    01:00 +31°C° 0 mm 2 mps 757 mmHg 55%
    02:00 +31°C° 0 mm 2 mps 757 mmHg 56%
    03:00 +30°C° 0 mm 2 mps 757 mmHg 58%
    04:00 +30°C° 0 mm 2 mps 757 mmHg 59%
    05:00 +30°C° 0 mm 2 mps 757 mmHg 58%
    06:00 +31°C° 0 mm 2 mps 758 mmHg 58%
    07:00 +31°C° 0 mm 2 mps 758 mmHg 58%
    08:00 +34°C° 0 mm 2 mps 758 mmHg 52%
    09:00 +35°C° 0 mm 3 mps 758 mmHg 46%
    10:00 +37°C° 0 mm 3 mps 758 mmHg 40%
    11:00 +38°C° 0 mm 3 mps 757 mmHg 37%
    12:00 +40°C° 0 mm 4 mps 757 mmHg 34%
    13:00 +41°C° 0 mm 5 mps 756 mmHg 31%
    14:00 +40°C° 0 mm 6 mps 756 mmHg 34%
    15:00 +39°C° 0 mm 6 mps 755 mmHg 37%
    16:00 +38°C° 0 mm 7 mps 755 mmHg 40%
    17:00 +36°C° 0 mm 6 mps 756 mmHg 44%
    18:00 +34°C° 0 mm 6 mps 757 mmHg 49%
    19:00 +32°C° 0 mm 5 mps 757 mmHg 53%
    20:00 +32°C° 0 mm 5 mps 758 mmHg 52%
    21:00 +32°C° 0 mm 4 mps 758 mmHg 52%
    22:00 +32°C° 0 mm 4 mps 759 mmHg 51%
    23:00 +32°C° 0 mm 4 mps 758 mmHg 51%

    27 Octubre, Sábado

    Tiempo Temperatura Precipitaciones Viento Presión Humedad
    00:00 +33°C° 0 mm 3 mps 758 mmHg 50%
    01:00 +32°C° 0 mm 2 mps 758 mmHg 50%
    02:00 +33°C° 0 mm 3 mps 757 mmHg 51%
    03:00 +31°C° 0 mm 3 mps 757 mmHg 53%
    04:00 +31°C° 0 mm 3 mps 757 mmHg 55%
    05:00 +31°C° 0 mm 3 mps 757 mmHg 53%
    06:00 +33°C° 0 mm 3 mps 757 mmHg 52%
    07:00 +33°C° 0 mm 3 mps 758 mmHg 51%
    08:00 +35°C° 0 mm 3 mps 758 mmHg 46%
    09:00 +37°C° 0 mm 4 mps 757 mmHg 41%
    10:00 +40°C° 0 mm 4 mps 757 mmHg 35%
    11:00 +41°C° 0 mm 5 mps 757 mmHg 32%
    12:00 +42°C° 0 mm 5 mps 756 mmHg 29%
    13:00 +44°C° 0 mm 6 mps 755 mmHg 26%
    14:00 +42°C° 0 mm 6 mps 755 mmHg 29%
    15:00 +41°C° 0 mm 7 mps 754 mmHg 32%
    16:00 +40°C° 0 mm 7 mps 754 mmHg 35%
    17:00 +39°C° 0.1 mm 7 mps 754 mmHg 39%
    18:00 +36°C° 0.1 mm 6 mps 755 mmHg 43%
    19:00 +35°C° 0.1 mm 5 mps 756 mmHg 47%
    20:00 +35°C° 0 mm 5 mps 756 mmHg 45%
    21:00 +35°C° 0 mm 5 mps 757 mmHg 43%
    22:00 +36°C° 0 mm 5 mps 757 mmHg 41%
    23:00 +35°C° 0.1 mm 5 mps 756 mmHg 42%

    28 Octubre, Domingo

    Tiempo Temperatura Precipitaciones Viento Presión Humedad
    00:00 +35°C° 0.1 mm 5 mps 756 mmHg 43%
    01:00 +34°C° 0.1 mm 5 mps 756 mmHg 45%
    02:00 +33°C° 0.4 mm 4 mps 755 mmHg 47%
    03:00 +33°C° 0.4 mm 3 mps 755 mmHg 50%
    04:00 +31°C° 0.4 mm 3 mps 755 mmHg 52%
    05:00 +31°C° 0 mm 3 mps 755 mmHg 51%
    06:00 +31°C° 0 mm 3 mps 756 mmHg 50%
    07:00 +33°C° 0 mm 3 mps 756 mmHg 49%
    08:00 +35°C° 0.1 mm 3 mps 756 mmHg 43%
    09:00 +37°C° 0.1 mm 2 mps 756 mmHg 38%
    10:00 +39°C° 0.1 mm 2 mps 756 mmHg 32%
    11:00 +40°C° 0 mm 3 mps 755 mmHg 32%
    12:00 +41°C° 0 mm 5 mps 755 mmHg 32%
    13:00 +42°C° 0 mm 6 mps 754 mmHg 31%
    14:00 +39°C° 0 mm 6 mps 754 mmHg 38%
    15:00 +36°C° 0 mm 6 mps 754 mmHg 45%
    16:00 +33°C° 0 mm 6 mps 754 mmHg 51%
    17:00 +32°C° 0 mm 5 mps 755 mmHg 55%
    18:00 +30°C° 0 mm 4 mps 755 mmHg 58%
    19:00 +29°C° 0 mm 3 mps 756 mmHg 61%
    20:00 +29°C° 0 mm 3 mps 756 mmHg 61%
    21:00 +29°C° 0 mm 3 mps 756 mmHg 61%
    22:00 +29°C° 0 mm 2 mps 757 mmHg 62%
    23:00 +29°C° 0 mm 2 mps 756 mmHg 63%
    Mostrar más